Terminal Aerodrome Forecast
Issued by NWS

Home | Current Version | Previous Version | Text Only | Print | Product List | Glossary On
Versions: 1 2 3 4 5 6 7 8 9 10 11 12 13 14 15 16 17 18 19 20 21
000
FTUS41 KBTV 020945 AAA
TAFSLK
TAF AMD
KSLK 020945Z 0210/0306 00000KT 3SM BR SCT015 OVC025
      TEMPO 0210/0214 BKN008 OVC015
     FM021400 24004KT P6SM FEW250
     FM030300 00000KT 2SM BR SCT003=

USA.gov is the U.S. government's official web portal to all federal, state and local government web resources and services.